Regional Weather Roundup
Issued by NWS Grand Forks, ND

Home | Current Version | Previous Version | Text Only | Print | Product List | Glossary On
Versions: 1 2 3 4 5 6 7 8 9 10 11 12 13 14 15 16 17 18 19 20 21 22 23 24 25 26 27 28 29 30 31 32 33 34 35 36 37 38 39 40 41 42 43 44 45 46 47 48 49 50
000
ASUS43 KFGF 301831
RWRFGF
PRAIRIE TO PINES  WEATHER ROUNDUP
NATIONAL WEATHER SERVICE EASTERN NORTH DAKOTA/GRAND FORKS ND
100 PM CDT THU OCT 30 2014

 **SATELLITE DATA USED TO AUGMENT SKY COVER AT AUTOMATED STATIONS**
 *****  WEATHER ACROSS EASTERN NORTH DAKOTA  *****

CITY           SKY/WX    TMP DP  RH WIND       PRES   REMARKS
GRAND FORKS    CLOUDY    37  25  61 N26G36    30.32R
6HR MIN TEMP:  28; 6HR MAX TEMP:  38;

GRAND FRKS AFB CLOUDY    38  26  63 N24G30    30.33R
GRAND FRKS NWS   N/A     36 N/A N/A N28         N/A
DEVILS LAKE    CLOUDY    34  18  51 N22       30.37R WCI  22
6HR MIN TEMP:  28; 6HR MAX TEMP:  34;

FARGO          CLOUDY    39  33  79 N22       30.28R
WAHPETON ARPT  CLOUDY    41  32  70 N24G31    30.25R
$$

 ***** WEATHER ACROSS CENTRAL AND WESTERN NORTH DAKOTA  *****

CITY           SKY/WX    TMP DP  RH WIND       PRES   REMARKS
BISMARCK       CLOUDY    36  32  85 N8        30.40R
6HR MIN TEMP:  32; 6HR MAX TEMP:  36;

MINOT          CLOUDY    33  26  75 N14       30.43R WCI  23
6HR MIN TEMP:  30; 6HR MAX TEMP:  34;

JAMESTOWN      CLOUDY    36  30  79 N18G25    30.34R
6HR MIN TEMP:  32; 6HR MAX TEMP:  36;

MINOT AFB      CLOUDY    32  27  80 N15       30.44R WCI  22
GARRISON         N/A     35  29  78 N10G18    30.40R
WILLISTON      CLOUDY    38  32  79 NE9       30.43R
6HR MIN TEMP:  36; 6HR MAX TEMP:  38;

DICKINSON      CLOUDY    37  31  78 N8        30.37R
6HR MIN TEMP:  34; 6HR MAX TEMP:  38;

HETTINGER      CLOUDY    37  31  78 N12       30.38R
6HR MIN TEMP:  32; 6HR MAX TEMP:  37;

$$

 *****  OTHER AIRPORT OBSERVATIONS IN OUR AREA  *****

CITY           SKY/WX    TMP DP  RH WIND       PRES   REMARKS
WALHALLA         N/A     36  19  51 N24G32    30.38S
GRAFTON AIRPOR CLOUDY    36  23  60 N24G32    30.35R
VALLEY CITY AR CLOUDY    36  34  93 N21       30.32R
CANDO          MOCLDY    36  19  51 N20G26    30.41R
CAVALIER APRT  CLOUDY    36  21  55 N20G32    30.36S
GWINNER        CLOUDY    39  34  81 N21G28    30.29R
ROLLA          MOCLDY    32  18  55 N20G29    30.40R WCI  20
 ***** THE ABOVE OBSERVATIONS ARE NON NWS ARE NOT QUALITY
       CONTROLLED AND MAY MIS-REPORT RAIN FOR SNOW...
$$

  *****  WEATHER ACROSS NORTHERN MINNESOTA  *****

CITY           SKY/WX    TMP DP  RH WIND       PRES   REMARKS
FLAG ISLAND    CLOUDY    34  27  75 NW31      30.23R WCI  20
WARROAD        MOSUNNY   36  25  64 NW15G30   30.25R
ROSEAU         PTSUNNY   37  27  65 NW28G33   30.26R
HALLOCK          N/A     37  25  60 N20G28    30.33R
THF RVR FALLS  CLOUDY    37  27  65 NW15G24   30.27R
6HR MIN TEMP:  32; 6HR MAX TEMP:  37;

BAUDETTE       CLOUDY    35  29  78 NW24G32   30.20R WCI  23
6HR MIN TEMP:  34; 6HR MAX TEMP:  40; 6HR PCP:  0.01;

WASKISH        PTSUNNY   39  32  75 NW10G16   30.18S
CROOKSTON      CLOUDY    37  28  70 N25G31    30.30S
STEPHEN NDAWN    N/A     36  28  75 N18         N/A
GREENBUSH NDAW   N/A     36  27  69 N20         N/A
$$
  *****  WEATHER ACROSS CENTRAL AND WEST MINNESOTA  *****

CITY           SKY/WX    TMP DP  RH WIND       PRES   REMARKS
FOSSTON        CLOUDY    36  30  80 N17G23    30.24S
BEMIDJI        CLOUDY    37  30  78 NW14G21   30.19R
PARK RAPIDS    CLOUDY    38  31  76 N17G24    30.18R
6HR MIN TEMP:  35; 6HR MAX TEMP:  39; 6HR PCP:  0.01;

ELBOW LAKE     CLOUDY    42  37  82 N16G22    30.19R
6HR MIN TEMP:  37; 6HR MAX TEMP:  42;

WADENA         CLOUDY    39  34  81 N15       30.17R
DETROIT LAKES  CLOUDY    37  32  81 N16G30    30.23R
MOORHEAD       CLOUDY    39  37  93 N17       30.28R
FERGUS FALLS   CLOUDY    41  30  65 N17       30.23R
MORRIS MN      MOSUNNY   43  39  87 N17       30.17R
STAPLES        CLOUDY    39  34  81 N13       30.17R
$$
  *****  WEATHER ELSEWHERE ACROSS MINNESOTA  *****

CITY           SKY/WX    TMP DP  RH WIND       PRES   REMARKS
DULUTH         CLOUDY    40  31  70 NW9       30.08S
6HR MIN TEMP:  36; 6HR MAX TEMP:  40;

INTRNTL FALLS  CLOUDY    37  33  85 NW8       30.13S
6HR MIN TEMP:  34; 6HR MAX TEMP:  39; 6HR PCP: TRACE;

ELY            CLOUDY    39  36  87 NW13      30.06S
CLOQUET        CLOUDY    41  30  65 NW8       30.09F
WHEATON        CLOUDY    39  36  87 N18G24    30.24R
BRAINERD       CLOUDY    40  35  83 N10       30.15S
6HR MIN TEMP:  36; 6HR MAX TEMP:  39; 6HR PCP: TRACE;

HIBBING        CLOUDY    40  32  73 NW14      30.11R
6HR MIN TEMP:  36; 6HR MAX TEMP:  40;

ALEXANDRIA     CLOUDY    42  37  82 N12       30.17R
6HR MIN TEMP:  39; 6HR MAX TEMP:  42;

SAINT CLOUD    CLOUDY    47  36  65 N10       30.13R
6HR MIN TEMP:  39; 6HR MAX TEMP:  47;

MINNEAPOLIS    CLOUDY    46  36  68 NW6       30.10S
6HR MIN TEMP:  39; 6HR MAX TEMP:  46;

$$

  *****  WEATHER ACROSS SOUTH DAKOTA  *****

CITY           SKY/WX    TMP DP  RH WIND       PRES   REMARKS
SIOUX FALLS    PTSUNNY   54  42  64 NW18G29   30.12R
6HR MIN TEMP:  41; 6HR MAX TEMP:  55;

BROOKINGS      NOT AVBL
WATERTOWN      CLOUDY    41  39  93 N16       30.18R
6HR MIN TEMP:  32; 6HR MAX TEMP:  44;

HURON          CLOUDY    42  37  82 N18G28    30.24R
6HR MIN TEMP:  36; 6HR MAX TEMP:  44;

SISSETON         N/A     42  37  82 N22G30    30.22R
ABERDEEN       CLOUDY    42  34  73 N17G29    30.28R
6HR MIN TEMP:  37; 6HR MAX TEMP:  42;

MITCHELL       CLOUDY    45  38  76 N21G26    30.22R
PIERRE         MOSUNNY   44  34  67 N20G30    30.30R
6HR MIN TEMP:  40; 6HR MAX TEMP:  45;

MOBRIDGE       PTSUNNY   42  32  67 N14G25    30.32R
RAPID CITY     SUNNY     53  35  50 N15G24    30.33R
6HR MIN TEMP:  34; 6HR MAX TEMP:  54;

$$

  *****  SOME WEATHER IN NEARBY STATES *****

CITY           SKY/WX    TMP DP  RH WIND       PRES   REMARKS
GLASGOW MT     CLOUDY    37  30  75 E12       30.40R
6HR MIN TEMP:  34; 6HR MAX TEMP:  37;

GREAT FALLS MT PTSUNNY   52  34  50 E6        30.25S
6HR MIN TEMP:  30; 6HR MAX TEMP:  52;

CHEYENNE WY    SUNNY     55  25  31 N9G18     30.36F
6HR MIN TEMP:  32; 6HR MAX TEMP:  55;

SCOTTSBLUFF NE SUNNY     58  33  39 W10       30.34F
6HR MIN TEMP:  32; 6HR MAX TEMP:  58;

OMAHA NE       MOSUNNY   60  41  49 N25       30.07S
6HR MIN TEMP:  36; 6HR MAX TEMP:  61;

DES MOINES IA  MOSUNNY   59  37  44 VRB3      30.01F
6HR MIN TEMP:  43; 6HR MAX TEMP:  60;

DAVENPORT IA   LGT RAIN  47  39  74 SE8       30.07F
6HR MIN TEMP:  35; 6HR MAX TEMP:  48; 6HR PCP: TRACE;

CHICAGO IL     CLOUDY    49  34  56 SW12G18   30.09F
6HR MIN TEMP:  34; 6HR MAX TEMP:  49;

EAU CLAIRE WI  CLOUDY    48  35  60 VRB3      30.07F
6HR MIN TEMP:  35; 6HR MAX TEMP:  48;

LA CROSSE WI   CLOUDY    46  36  68 CALM      30.09S
6HR MIN TEMP:  38; 6HR MAX TEMP:  46;

$$

  *****  SOME NATIONAL WEATHER *****

CITY           SKY/WX    TMP DP  RH WIND       PRES   REMARKS
LA GUARDIA NY  MOSUNNY   57  36  45 VRB3      29.97F
6HR MIN TEMP:  50; 6HR MAX TEMP:  58;

RALEIGH NC     MOSUNNY   65  40  39 CALM      30.01F
6HR MIN TEMP:  48; 6HR MAX TEMP:  66;

ATLANTA GA     SUNNY     63  39  41 S5        30.03F
6HR MIN TEMP:  45; 6HR MAX TEMP:  65;

NEW ORLEANS LA MOSUNNY   72  44  36 NE10      30.09F
6HR MIN TEMP:  63; 6HR MAX TEMP:  73;

OKLAHOMA CITY  SUNNY     73  46  38 NW13      30.15S
6HR MIN TEMP:  45; 6HR MAX TEMP:  73;

ALBUQUERQUE NM SUNNY     62  16  16 N12       30.35S
6HR MIN TEMP:  46; 6HR MAX TEMP:  62;

SALT LAKE CITY MOSUNNY   61  28  28 E3        30.25F
6HR MIN TEMP:  38; 6HR MAX TEMP:  61;

LOS ANGELES CA MOSUNNY   72  54  52 CALM      29.99S



USA.gov is the U.S. government's official web portal to all federal, state and local government web resources and services.